Time,TemperatureF,DewpointF,PressureIn,WindDirection,WindDirectionDegrees,WindSpeedMPH,WindSpeedGustMPH,Humidity,HourlyPrecipIn,Conditions,Clouds,dailyrainin,SoftwareType,DateUTC
2013-03-25 00:00:00,29.9,27.6,29.92,NNW,342,10.0,11.0,91,0.00,,,0.05,Wunderground v.1.15,2013-03-25 05:00:00,
2013-03-25 00:05:00,29.8,27.5,29.92,NNW,342,9.0,14.0,91,0.00,,,0.05,Wunderground v.1.15,2013-03-25 05:05:00,
2013-03-25 00:10:00,29.8,27.5,29.92,NNW,346,13.0,13.0,91,0.00,,,0.00,Wunderground v.1.15,2013-03-25 05:10:00,
2013-03-25 00:15:00,29.8,27.5,29.92,NNW,334,10.0,13.0,91,0.00,,,0.00,Wunderground v.1.15,2013-03-25 05:15:00,
2013-03-25 00:20:00,29.8,27.8,29.92,NNW,331,8.0,11.0,92,0.00,,,0.00,Wunderground v.1.15,2013-03-25 05:20:00,
2013-03-25 00:25:00,29.8,27.8,29.92,NNW,338,11.0,13.0,92,0.00,,,0.00,Wunderground v.1.15,2013-03-25 05:25:00,
2013-03-25 00:30:00,29.8,27.8,29.92,NNW,327,10.0,11.0,92,0.00,,,0.00,Wunderground v.1.15,2013-03-25 05:30:00,
2013-03-25 00:35:00,29.8,27.8,29.92,NNW,331,10.0,13.0,92,0.00,,,0.00,Wunderground v.1.15,2013-03-25 05:35:00,
2013-03-25 00:40:00,29.7,27.7,29.92,NNW,331,10.0,11.0,92,0.00,,,0.00,Wunderground v.1.15,2013-03-25 05:40:00,
2013-03-25 00:45:00,29.7,27.7,29.92,NNW,340,11.0,13.0,92,0.00,,,0.00,Wunderground v.1.15,2013-03-25 05:45:00,
2013-03-25 00:50:00,29.7,27.7,29.92,NNW,333,10.0,10.0,92,0.00,,,0.00,Wunderground v.1.15,2013-03-25 05:50:00,
2013-03-25 00:55:00,29.7,27.7,29.91,NNW,333,12.0,13.0,92,0.00,,,0.00,Wunderground v.1.15,2013-03-25 05:55:00,
2013-03-25 01:00:00,29.8,27.8,29.92,NNW,329,9.0,11.0,92,0.00,,,0.00,Wunderground v.1.15,2013-03-25 06:00:00,
2013-03-25 01:05:00,29.7,27.7,29.92,NNW,334,11.0,15.0,92,0.00,,,0.00,Wunderground v.1.15,2013-03-25 06:05:00,
2013-03-25 01:10:00,29.7,27.7,29.92,NNW,329,13.0,13.0,92,0.00,,,0.00,Wunderground v.1.15,2013-03-25 06:10:00,
2013-03-25 01:15:00,29.7,27.7,29.92,NNW,336,11.0,15.0,92,0.00,,,0.00,Wunderground v.1.15,2013-03-25 06:15:00,
2013-03-25 01:20:00,29.7,27.7,29.92,NNW,335,12.0,12.0,92,0.00,,,0.00,Wunderground v.1.15,2013-03-25 06:20:00,
2013-03-25 01:25:00,29.7,27.7,29.92,NNW,327,14.0,15.0,92,0.00,,,0.00,Wunderground v.1.15,2013-03-25 06:25:00,
2013-03-25 01:30:00,29.6,27.6,29.92,NNW,340,11.0,13.0,92,0.00,,,0.00,Wunderground v.1.15,2013-03-25 06:30:00,
2013-03-25 01:35:00,29.6,27.6,29.92,NNW,327,11.0,15.0,92,0.00,,,0.00,Wunderground v.1.15,2013-03-25 06:35:00,
2013-03-25 01:40:00,29.6,27.6,29.92,NNW,328,8.0,12.0,92,0.00,,,0.00,Wunderground v.1.15,2013-03-25 06:40:00,
2013-03-25 01:45:00,29.5,27.5,29.92,NW,320,12.0,18.0,92,0.00,,,0.00,Wunderground v.1.15,2013-03-25 06:45:00,
2013-03-25 01:50:00,29.4,27.4,29.92,NNW,331,10.0,12.0,92,0.00,,,0.00,Wunderground v.1.15,2013-03-25 06:50:00,
2013-03-25 01:55:00,29.5,27.5,29.92,NNW,338,12.0,12.0,92,0.00,,,0.00,Wunderground v.1.15,2013-03-25 06:55:00,
2013-03-25 02:00:00,29.4,27.4,29.92,NNW,331,16.0,16.0,92,0.00,,,0.00,Wunderground v.1.15,2013-03-25 07:00:00,
2013-03-25 02:05:00,29.4,27.4,29.92,NNW,331,10.0,16.0,92,0.00,,,0.00,Wunderground v.1.15,2013-03-25 07:05:00,
2013-03-25 02:10:00,29.4,27.4,29.92,NW,325,13.0,13.0,92,0.00,,,0.00,Wunderground v.1.15,2013-03-25 07:10:00,
2013-03-25 02:15:00,29.4,27.4,29.92,NNW,332,11.0,14.0,92,0.00,,,0.00,Wunderground v.1.15,2013-03-25 07:15:00,
2013-03-25 02:20:00,29.3,27.3,29.92,NNW,331,13.0,13.0,92,0.00,,,0.00,Wunderground v.1.15,2013-03-25 07:20:00,
2013-03-25 02:25:00,29.3,27.3,29.92,NNW,327,9.0,13.0,92,0.00,,,0.00,Wunderground v.1.15,2013-03-25 07:25:00,
2013-03-25 02:30:00,29.3,27.3,29.92,NW,321,9.0,11.0,92,0.00,,,0.00,Wunderground v.1.15,2013-03-25 07:30:00,
2013-03-25 02:35:00,29.3,27.3,29.92,NW,322,7.0,15.0,92,0.00,,,0.00,Wunderground v.1.15,2013-03-25 07:35:00,
2013-03-25 02:40:00,29.3,27.3,29.92,NW,325,10.0,11.0,92,0.00,,,0.00,Wunderground v.1.15,2013-03-25 07:40:00,
2013-03-25 02:45:00,29.4,27.4,29.92,NNW,329,11.0,14.0,92,0.00,,,0.00,Wunderground v.1.15,2013-03-25 07:45:00,
2013-03-25 02:50:00,29.4,27.4,29.92,NNW,329,11.0,11.0,92,0.00,,,0.00,Wunderground v.1.15,2013-03-25 07:50:00,
2013-03-25 02:55:00,29.4,27.4,29.92,NW,321,9.0,12.0,92,0.00,,,0.00,Wunderground v.1.15,2013-03-25 07:55:00,
2013-03-25 03:00:00,29.4,27.4,29.92,NW,326,12.0,15.0,92,0.00,,,0.00,Wunderground v.1.15,2013-03-25 08:00:00,
2013-03-25 03:05:00,29.4,27.4,29.92,NNW,328,11.0,14.0,92,0.00,,,0.00,Wunderground v.1.15,2013-03-25 08:05:00,
2013-03-25 03:10:00,29.4,27.4,29.92,NNW,338,9.0,15.0,92,0.00,,,0.00,Wunderground v.1.15,2013-03-25 08:10:00,
2013-03-25 03:15:00,29.4,27.4,29.91,NW,319,13.0,14.0,92,0.00,,,0.00,Wunderground v.1.15,2013-03-25 08:15:00,
2013-03-25 03:19:00,29.4,27.4,29.92,NNW,336,10.0,14.0,92,0.00,,,0.00,Wunderground v.1.15,2013-03-25 08:19:00,
2013-03-25 03:24:00,29.4,27.4,29.91,NNW,329,10.0,12.0,92,0.00,,,0.00,Wunderground v.1.15,2013-03-25 08:24:00,
2013-03-25 03:29:00,29.4,27.4,29.92,NNW,330,11.0,14.0,92,0.00,,,0.00,Wunderground v.1.15,2013-03-25 08:29:00,
2013-03-25 03:34:00,29.4,27.4,29.91,NNW,329,11.0,14.0,92,0.00,,,0.00,Wunderground v.1.15,2013-03-25 08:34:00,
2013-03-25 03:39:00,29.4,27.4,29.91,NW,317,14.0,14.0,92,0.00,,,0.00,Wunderground v.1.15,2013-03-25 08:39:00,
2013-03-25 03:44:00,29.5,27.5,29.91,NNW,332,10.0,15.0,92,0.00,,,0.00,Wunderground v.1.15,2013-03-25 08:44:00,
2013-03-25 03:49:00,29.6,27.6,29.91,NNW,331,10.0,15.0,92,0.00,,,0.00,Wunderground v.1.15,2013-03-25 08:49:00,
2013-03-25 03:54:00,29.7,27.4,29.91,NNW,337,12.0,16.0,91,0.00,,,0.00,Wunderground v.1.15,2013-03-25 08:54:00,
2013-03-25 03:59:00,29.7,27.4,29.91,NNW,333,11.0,16.0,91,0.00,,,0.00,Wunderground v.1.15,2013-03-25 08:59:00,
2013-03-25 04:04:00,29.8,27.5,29.91,NNW,339,12.0,16.0,91,0.00,,,0.00,Wunderground v.1.15,2013-03-25 09:04:00,
2013-03-25 04:09:00,29.9,27.3,29.91,NNW,336,13.0,17.0,90,0.00,,,0.00,Wunderground v.1.15,2013-03-25 09:09:00,
2013-03-25 04:14:00,29.9,27.3,29.91,NNW,342,18.0,18.0,90,0.00,,,0.00,Wunderground v.1.15,2013-03-25 09:14:00,
2013-03-25 04:19:00,29.9,27.3,29.91,NNW,345,13.0,19.0,90,0.00,,,0.00,Wunderground v.1.15,2013-03-25 09:19:00,
2013-03-25 04:24:00,29.8,27.2,29.92,NNW,331,10.0,19.0,90,0.00,,,0.00,Wunderground v.1.15,2013-03-25 09:24:00,
2013-03-25 04:30:00,29.7,27.1,29.92,NNW,346,12.0,19.0,90,0.00,,,0.00,Wunderground v.1.15,2013-03-25 09:30:00,
2013-03-25 04:35:00,29.7,27.4,29.92,NNW,327,12.0,16.0,91,0.00,,,0.00,Wunderground v.1.15,2013-03-25 09:35:00,
2013-03-25 04:40:00,29.6,27.3,29.92,North,355,18.0,19.0,91,0.00,,,0.00,Wunderground v.1.15,2013-03-25 09:40:00,
2013-03-25 04:45:00,29.4,27.1,29.92,North,360,15.0,20.0,91,0.00,,,0.00,Wunderground v.1.15,2013-03-25 09:45:00,
2013-03-25 04:49:00,29.4,26.8,29.92,NNW,346,10.0,20.0,90,0.00,,,0.00,Wunderground v.1.15,2013-03-25 09:49:00,
2013-03-25 04:54:00,29.4,26.8,29.92,NNW,341,16.0,19.0,90,0.00,,,0.00,Wunderground v.1.15,2013-03-25 09:54:00,
2013-03-25 04:59:00,29.6,26.8,29.92,North,349,11.0,19.0,89,0.00,,,0.00,Wunderground v.1.15,2013-03-25 09:59:00,
2013-03-25 05:04:00,29.6,26.8,29.92,NNW,337,11.0,14.0,89,0.00,,,0.00,Wunderground v.1.15,2013-03-25 10:04:00,
2013-03-25 05:09:00,29.6,26.5,29.92,North,355,17.0,17.0,88,0.00,,,0.00,Wunderground v.1.15,2013-03-25 10:09:00,
2013-03-25 05:14:00,29.6,26.2,29.92,North,360,12.0,20.0,87,0.00,,,0.00,Wunderground v.1.15,2013-03-25 10:14:00,
2013-03-25 05:19:00,29.6,25.9,29.92,NNW,345,12.0,20.0,86,0.00,,,0.00,Wunderground v.1.15,2013-03-25 10:19:00,
2013-03-25 05:24:00,29.6,25.9,29.92,North,351,11.0,17.0,86,0.00,,,0.00,Wunderground v.1.15,2013-03-25 10:24:00,
2013-03-25 05:29:00,29.6,25.9,29.92,North,355,14.0,17.0,86,0.00,,,0.00,Wunderground v.1.15,2013-03-25 10:29:00,
2013-03-25 05:34:00,29.4,25.4,29.92,NNW,335,14.0,18.0,85,0.00,,,0.00,Wunderground v.1.15,2013-03-25 10:34:00,
2013-03-25 05:39:00,29.4,25.4,29.92,NNW,346,13.0,18.0,85,0.00,,,0.00,Wunderground v.1.15,2013-03-25 10:39:00,
2013-03-25 05:44:00,29.4,25.2,29.93,NNW,336,13.0,18.0,84,0.00,,,0.00,Wunderground v.1.15,2013-03-25 10:44:00,
2013-03-25 05:49:00,29.4,25.2,29.93,NNW,339,17.0,19.0,84,0.00,,,0.00,Wunderground v.1.15,2013-03-25 10:49:00,
2013-03-25 05:54:00,29.3,24.8,29.93,North,355,16.0,18.0,83,0.00,,,0.00,Wunderground v.1.15,2013-03-25 10:54:00,
2013-03-25 05:59:00,29.2,24.7,29.93,NNW,333,17.0,19.0,83,0.00,,,0.00,Wunderground v.1.15,2013-03-25 10:59:00,
2013-03-25 06:04:00,29.1,24.3,29.93,NNW,348,16.0,20.0,82,0.00,,,0.00,Wunderground v.1.15,2013-03-25 11:04:00,
2013-03-25 06:09:00,28.9,24.1,29.93,NNW,336,12.0,21.0,82,0.00,,,0.00,Wunderground v.1.15,2013-03-25 11:09:00,
2013-03-25 06:14:00,28.8,24.0,29.94,NNW,348,12.0,20.0,82,0.00,,,0.00,Wunderground v.1.15,2013-03-25 11:14:00,
2013-03-25 06:19:00,28.7,23.9,29.94,NNW,330,12.0,20.0,82,0.00,,,0.00,Wunderground v.1.15,2013-03-25 11:19:00,
2013-03-25 06:24:00,28.7,23.6,29.94,NNW,342,14.0,18.0,81,0.00,,,0.00,Wunderground v.1.15,2013-03-25 11:24:00,
2013-03-25 06:29:00,28.6,23.5,29.94,NW,325,11.0,18.0,81,0.00,,,0.00,Wunderground v.1.15,2013-03-25 11:29:00,
2013-03-25 06:34:00,28.5,23.4,29.94,NNW,346,14.0,18.0,81,0.00,,,0.00,Wunderground v.1.15,2013-03-25 11:34:00,
2013-03-25 06:39:00,28.4,23.3,29.94,NNW,344,13.0,19.0,81,0.00,,,0.00,Wunderground v.1.15,2013-03-25 11:39:00,
2013-03-25 06:44:00,28.4,23.0,29.94,NNW,332,14.0,20.0,80,0.00,,,0.00,Wunderground v.1.15,2013-03-25 11:44:00,
2013-03-25 06:49:00,28.3,22.9,29.94,NNW,341,16.0,20.0,80,0.00,,,0.00,Wunderground v.1.15,2013-03-25 11:49:00,
2013-03-25 06:54:00,28.3,23.2,29.95,NNW,338,15.0,19.0,81,0.00,,,0.00,Wunderground v.1.15,2013-03-25 11:54:00,
2013-03-25 06:59:00,28.3,22.9,29.95,NNW,348,14.0,19.0,80,0.00,,,0.00,Wunderground v.1.15,2013-03-25 11:59:00,
2013-03-25 07:04:00,28.2,23.1,29.95,NNW,346,14.0,20.0,81,0.00,,,0.00,Wunderground v.1.15,2013-03-25 12:04:00,
2013-03-25 07:09:00,28.2,22.8,29.95,NNW,346,19.0,21.0,80,0.00,,,0.00,Wunderground v.1.15,2013-03-25 12:09:00,
2013-03-25 07:14:00,28.2,22.8,29.95,NNW,340,16.0,17.0,80,0.00,,,0.00,Wunderground v.1.15,2013-03-25 12:14:00,
2013-03-25 07:19:00,28.1,22.7,29.96,NNW,341,12.0,17.0,80,0.00,,,0.00,Wunderground v.1.15,2013-03-25 12:19:00,
2013-03-25 07:24:00,28.2,22.8,29.96,NNW,339,15.0,18.0,80,0.00,,,0.00,Wunderground v.1.15,2013-03-25 12:24:00,
2013-03-25 07:29:00,28.2,22.8,29.96,NNW,342,13.0,18.0,80,0.00,,,0.00,Wunderground v.1.15,2013-03-25 12:29:00,
2013-03-25 07:34:00,28.2,22.8,29.96,North,355,10.0,16.0,80,0.00,,,0.00,Wunderground v.1.15,2013-03-25 12:34:00,
2013-03-25 07:39:00,28.2,22.8,29.97,North,350,11.0,16.0,80,0.00,,,0.00,Wunderground v.1.15,2013-03-25 12:39:00,
2013-03-25 07:44:00,28.2,22.8,29.97,North,355,10.0,16.0,80,0.00,,,0.00,Wunderground v.1.15,2013-03-25 12:44:00,
2013-03-25 07:49:00,28.3,22.9,29.97,NNW,346,8.0,16.0,80,0.00,,,0.00,Wunderground v.1.15,2013-03-25 12:49:00,
2013-03-25 07:54:00,28.3,22.9,29.97,NNW,338,7.0,13.0,80,0.00,,,0.00,Wunderground v.1.15,2013-03-25 12:54:00,
2013-03-25 07:59:00,28.3,22.9,29.98,North,355,11.0,17.0,80,0.00,,,0.00,Wunderground v.1.15,2013-03-25 12:59:00,
2013-03-25 08:04:00,28.3,22.9,29.98,North,355,10.0,15.0,80,0.00,,,0.00,Wunderground v.1.15,2013-03-25 13:04:00,
2013-03-25 08:09:00,28.4,22.7,29.98,North,355,15.0,16.0,79,0.00,,,0.00,Wunderground v.1.15,2013-03-25 13:09:00,
2013-03-25 08:14:00,28.5,22.8,29.98,North,355,11.0,16.0,79,0.00,,,0.00,Wunderground v.1.15,2013-03-25 13:14:00,
2013-03-25 08:19:00,28.5,22.5,29.99,North,355,15.0,18.0,78,0.00,,,0.00,Wunderground v.1.15,2013-03-25 13:19:00,
2013-03-25 08:24:00,28.5,22.5,29.99,North,360,8.0,15.0,78,0.00,,,0.00,Wunderground v.1.15,2013-03-25 13:24:00,
2013-03-25 08:29:00,28.5,22.2,29.99,North,355,13.0,19.0,77,0.00,,,0.00,Wunderground v.1.15,2013-03-25 13:29:00,
2013-03-25 08:34:00,28.5,22.2,29.99,NNW,346,11.0,17.0,77,0.00,,,0.00,Wunderground v.1.15,2013-03-25 13:34:00,
2013-03-25 08:39:00,28.4,22.1,30.00,North,355,15.0,20.0,77,0.00,,,0.00,Wunderground v.1.15,2013-03-25 13:39:00,
2013-03-25 08:44:00,28.4,22.1,30.00,North,355,16.0,18.0,77,0.00,,,0.00,Wunderground v.1.15,2013-03-25 13:44:00,
2013-03-25 08:49:00,28.5,22.5,30.00,North,5,14.0,18.0,78,0.00,,,0.00,Wunderground v.1.15,2013-03-25 13:49:00,
2013-03-25 08:54:00,28.3,22.0,30.00,NNW,331,17.0,21.0,77,0.00,,,0.00,Wunderground v.1.15,2013-03-25 13:54:00,
2013-03-25 08:59:00,28.3,21.7,30.00,North,355,10.0,21.0,76,0.00,,,0.00,Wunderground v.1.15,2013-03-25 13:59:00,
2013-03-25 09:04:00,28.2,21.6,30.00,North,355,13.0,20.0,76,0.00,,,0.00,Wunderground v.1.15,2013-03-25 14:04:00,
2013-03-25 09:09:00,28.1,21.5,30.00,North,5,15.0,20.0,76,0.00,,,0.00,Wunderground v.1.15,2013-03-25 14:09:00,
2013-03-25 09:14:00,28.0,21.4,30.00,NNE,16,14.0,19.0,76,0.00,,,0.00,Wunderground v.1.15,2013-03-25 14:14:00,
2013-03-25 09:19:00,28.1,21.8,30.01,North,5,13.0,19.0,77,0.00,,,0.00,Wunderground v.1.15,2013-03-25 14:19:00,
2013-03-25 09:24:00,28.0,21.7,30.01,North,360,12.0,21.0,77,0.00,,,0.00,Wunderground v.1.15,2013-03-25 14:24:00,
2013-03-25 09:29:00,28.1,21.8,30.01,North,355,8.0,21.0,77,0.00,,,0.00,Wunderground v.1.15,2013-03-25 14:29:00,
2013-03-25 09:34:00,28.2,21.9,30.02,North,5,13.0,19.0,77,0.00,,,0.00,Wunderground v.1.15,2013-03-25 14:34:00,
2013-03-25 09:39:00,28.1,21.5,30.02,North,360,13.0,19.0,76,0.00,,,0.00,Wunderground v.1.15,2013-03-25 14:39:00,
2013-03-25 09:44:00,28.1,21.8,30.02,North,360,10.0,17.0,77,0.00,,,0.00,Wunderground v.1.15,2013-03-25 14:44:00,
2013-03-25 09:49:00,28.2,21.9,30.02,North,355,15.0,18.0,77,0.00,,,0.00,Wunderground v.1.15,2013-03-25 14:49:00,
2013-03-25 09:54:00,28.3,22.3,30.02,North,349,12.0,16.0,78,0.00,,,0.00,Wunderground v.1.15,2013-03-25 14:54:00,
2013-03-25 09:59:00,28.3,22.0,30.02,North,355,15.0,21.0,77,0.00,,,0.00,Wunderground v.1.15,2013-03-25 14:59:00,
2013-03-25 10:04:00,28.4,22.1,30.03,North,355,15.0,20.0,77,0.00,,,0.00,Wunderground v.1.15,2013-03-25 15:04:00,
2013-03-25 10:09:00,28.4,22.1,30.03,North,350,10.0,20.0,77,0.00,,,0.00,Wunderground v.1.15,2013-03-25 15:09:00,
2013-03-25 10:14:00,28.4,22.1,30.03,North,351,17.0,19.0,77,0.00,,,0.00,Wunderground v.1.15,2013-03-25 15:14:00,
2013-03-25 10:19:00,28.4,22.1,30.03,North,355,17.0,21.0,77,0.00,,,0.00,Wunderground v.1.15,2013-03-25 15:19:00,
2013-03-25 10:24:00,28.4,22.4,30.03,NNW,347,17.0,21.0,78,0.00,,,0.00,Wunderground v.1.15,2013-03-25 15:24:00,
2013-03-25 10:29:00,28.5,22.5,30.04,North,350,17.0,21.0,78,0.00,,,0.00,Wunderground v.1.15,2013-03-25 15:29:00,
2013-03-25 10:34:00,28.7,22.7,30.04,NNE,13,12.0,22.0,78,0.00,,,0.00,Wunderground v.1.15,2013-03-25 15:34:00,
2013-03-25 10:39:00,28.9,22.6,30.04,NNW,346,12.0,22.0,77,0.00,,,0.00,Wunderground v.1.15,2013-03-25 15:39:00,
2013-03-25 10:44:00,29.0,22.7,30.04,North,9,14.0,19.0,77,0.00,,,0.00,Wunderground v.1.15,2013-03-25 15:44:00,
2013-03-25 10:49:00,29.2,22.9,30.04,North,9,11.0,21.0,77,0.00,,,0.00,Wunderground v.1.15,2013-03-25 15:49:00,
2013-03-25 10:54:00,29.3,23.3,30.05,NNE,21,13.0,17.0,78,0.00,,,0.00,Wunderground v.1.15,2013-03-25 15:54:00,
2013-03-25 10:59:00,29.5,23.2,30.05,NNE,24,13.0,17.0,77,0.00,,,0.00,Wunderground v.1.15,2013-03-25 15:59:00,
2013-03-25 11:04:00,29.6,23.3,30.05,North,360,13.0,16.0,77,0.00,,,0.00,Wunderground v.1.15,2013-03-25 16:04:00,
2013-03-25 11:09:00,29.8,23.5,30.05,North,351,12.0,19.0,77,0.00,,,0.00,Wunderground v.1.15,2013-03-25 16:09:00,
2013-03-25 11:14:00,29.8,23.5,30.05,NNW,345,12.0,20.0,77,0.00,,,0.00,Wunderground v.1.15,2013-03-25 16:14:00,
2013-03-25 11:19:00,29.8,23.8,30.05,North,351,11.0,20.0,78,0.00,,,0.00,Wunderground v.1.15,2013-03-25 16:19:00,
2013-03-25 11:24:00,29.8,23.8,30.05,North,355,16.0,18.0,78,0.00,,,0.00,Wunderground v.1.15,2013-03-25 16:24:00,
2013-03-25 11:29:00,29.7,23.7,30.05,NNW,343,15.0,19.0,78,0.00,,,0.00,Wunderground v.1.15,2013-03-25 16:29:00,
2013-03-25 11:34:00,29.9,23.9,30.05,NNW,338,16.0,19.0,78,0.00,,,0.00,Wunderground v.1.15,2013-03-25 16:34:00,
2013-03-25 11:39:00,30.0,24.3,30.06,NNW,337,15.0,20.0,79,0.00,,,0.00,Wunderground v.1.15,2013-03-25 16:39:00,
2013-03-25 11:44:00,29.9,24.2,30.06,NNW,333,14.0,17.0,79,0.00,,,0.00,Wunderground v.1.15,2013-03-25 16:44:00,
2013-03-25 11:49:00,30.0,24.3,30.05,NNW,344,18.0,19.0,79,0.00,,,0.00,Wunderground v.1.15,2013-03-25 16:49:00,
2013-03-25 11:54:00,30.1,24.4,30.06,NNW,341,13.0,19.0,79,0.00,,,0.00,Wunderground v.1.15,2013-03-25 16:54:00,
2013-03-25 11:59:00,30.3,24.6,30.05,NNW,336,14.0,20.0,79,0.00,,,0.00,Wunderground v.1.15,2013-03-25 16:59:00,
2013-03-25 12:04:00,30.6,24.9,30.06,NNW,348,14.0,19.0,79,0.00,,,0.00,Wunderground v.1.15,2013-03-25 17:04:00,
2013-03-25 12:09:00,30.7,25.0,30.06,NNW,338,15.0,19.0,79,0.00,,,0.00,Wunderground v.1.15,2013-03-25 17:09:00,
2013-03-25 12:14:00,30.8,25.1,30.06,NNW,330,16.0,19.0,79,0.00,,,0.00,Wunderground v.1.15,2013-03-25 17:14:00,
2013-03-25 12:19:00,31.0,25.2,30.06,NNW,343,18.0,21.0,79,0.00,,,0.00,Wunderground v.1.15,2013-03-25 17:19:00,
2013-03-25 12:24:00,31.2,25.4,30.06,North,355,16.0,21.0,79,0.00,,,0.00,Wunderground v.1.15,2013-03-25 17:24:00,
2013-03-25 12:29:00,31.6,25.8,30.06,North,350,17.0,21.0,79,0.00,,,0.00,Wunderground v.1.15,2013-03-25 17:29:00,
2013-03-25 12:34:00,31.9,25.5,30.06,NNW,345,20.0,22.0,77,0.00,,,0.00,Wunderground v.1.15,2013-03-25 17:34:00,
2013-03-25 12:39:00,32.1,26.0,30.06,NNW,344,17.0,22.0,78,0.00,,,0.00,Wunderground v.1.15,2013-03-25 17:39:00,
2013-03-25 12:44:00,32.3,26.5,30.06,North,355,18.0,21.0,79,0.00,,,0.00,Wunderground v.1.15,2013-03-25 17:44:00,
2013-03-25 12:49:00,32.7,26.6,30.06,North,355,15.0,21.0,78,0.00,,,0.00,Wunderground v.1.15,2013-03-25 17:49:00,
2013-03-25 12:54:00,32.8,27.0,30.06,NNW,343,14.0,18.0,79,0.00,,,0.00,Wunderground v.1.15,2013-03-25 17:54:00,
2013-03-25 12:59:00,32.6,26.5,30.06,NNW,328,14.0,21.0,78,0.00,,,0.00,Wunderground v.1.15,2013-03-25 17:59:00,
2013-03-25 13:04:00,32.7,26.6,30.06,NNW,345,18.0,22.0,78,0.00,,,0.00,Wunderground v.1.15,2013-03-25 18:04:00,
2013-03-25 13:09:00,32.9,26.5,30.06,NNW,338,12.0,22.0,77,0.00,,,0.00,Wunderground v.1.15,2013-03-25 18:09:00,
2013-03-25 13:14:00,33.2,27.1,30.06,NNW,347,14.0,21.0,78,0.00,,,0.00,Wunderground v.1.15,2013-03-25 18:14:00,
2013-03-25 13:19:00,33.6,26.8,30.06,NNW,348,12.0,21.0,76,0.00,,,0.00,Wunderground v.1.15,2013-03-25 18:19:00,
2013-03-25 13:24:00,33.7,27.3,30.05,North,355,14.0,20.0,77,0.00,,,0.00,Wunderground v.1.15,2013-03-25 18:24:00,
2013-03-25 13:29:00,33.9,27.4,30.06,NNW,342,11.0,20.0,77,0.00,,,0.00,Wunderground v.1.15,2013-03-25 18:29:00,
2013-03-25 13:34:00,34.3,27.8,30.06,North,355,14.0,17.0,77,0.00,,,0.00,Wunderground v.1.15,2013-03-25 18:34:00,
2013-03-25 13:39:00,34.5,27.7,30.06,NNW,347,11.0,19.0,76,0.00,,,0.00,Wunderground v.1.15,2013-03-25 18:39:00,
2013-03-25 13:44:00,34.6,28.1,30.06,NNW,339,12.0,19.0,77,0.00,,,0.00,Wunderground v.1.15,2013-03-25 18:44:00,
2013-03-25 13:49:00,34.4,27.3,30.06,NNW,332,17.0,20.0,75,0.00,,,0.00,Wunderground v.1.15,2013-03-25 18:49:00,
2013-03-25 13:54:00,34.4,27.9,30.06,NNW,348,14.0,20.0,77,0.00,,,0.00,Wunderground v.1.15,2013-03-25 18:54:00,
2013-03-25 13:59:00,34.6,28.1,30.06,North,5,15.0,20.0,77,0.00,,,0.00,Wunderground v.1.15,2013-03-25 18:59:00,
2013-03-25 14:04:00,34.9,27.8,30.06,NNW,338,14.0,22.0,75,0.00,,,0.00,Wunderground v.1.15,2013-03-25 19:04:00,
2013-03-25 14:09:00,34.8,28.0,30.06,North,351,18.0,22.0,76,0.00,,,0.00,Wunderground v.1.15,2013-03-25 19:09:00,
2013-03-25 14:14:00,34.7,27.9,30.06,North,5,11.0,20.0,76,0.00,,,0.00,Wunderground v.1.15,2013-03-25 19:14:00,
2013-03-25 14:19:00,34.9,28.1,30.06,NNW,327,18.0,20.0,76,0.00,,,0.00,Wunderground v.1.15,2013-03-25 19:19:00,
2013-03-25 14:24:00,34.6,27.5,30.06,NNW,341,13.0,21.0,75,0.00,,,0.00,Wunderground v.1.15,2013-03-25 19:24:00,
2013-03-25 14:29:00,34.8,28.0,30.06,NW,325,16.0,21.0,76,0.00,,,0.00,Wunderground v.1.15,2013-03-25 19:29:00,
2013-03-25 14:34:00,34.7,27.9,30.06,NNW,339,17.0,21.0,76,0.00,,,0.00,Wunderground v.1.15,2013-03-25 19:34:00,
2013-03-25 14:39:00,35.1,28.3,30.06,NNW,333,15.0,21.0,76,0.00,,,0.00,Wunderground v.1.15,2013-03-25 19:39:00,
2013-03-25 14:44:00,35.5,28.0,30.06,NNW,339,17.0,26.0,74,0.00,,,0.01,Wunderground v.1.15,2013-03-25 19:44:00,
2013-03-25 14:49:00,35.9,28.4,30.06,NW,324,25.0,26.0,74,0.00,,,0.01,Wunderground v.1.15,2013-03-25 19:49:00,
2013-03-25 14:54:00,35.7,28.6,30.06,NNW,340,18.0,24.0,75,0.00,,,0.01,Wunderground v.1.15,2013-03-25 19:54:00,
2013-03-25 14:59:00,35.9,28.7,30.06,NNW,345,12.0,24.0,75,0.00,,,0.01,Wunderground v.1.15,2013-03-25 19:59:00,
2013-03-25 15:04:00,36.1,28.6,30.06,NW,323,23.0,23.0,74,0.00,,,0.01,Wunderground v.1.15,2013-03-25 20:04:00,
2013-03-25 15:09:00,36.1,28.6,30.06,NNW,328,17.0,25.0,74,0.00,,,0.01,Wunderground v.1.15,2013-03-25 20:09:00,
2013-03-25 15:14:00,36.1,28.3,30.06,NNW,335,16.0,24.0,73,0.00,,,0.01,Wunderground v.1.15,2013-03-25 20:14:00,
2013-03-25 15:19:00,36.1,27.9,30.06,North,355,15.0,24.0,72,0.00,,,0.01,Wunderground v.1.15,2013-03-25 20:19:00,
2013-03-25 15:24:00,36.0,28.5,30.06,NNW,333,14.0,21.0,74,0.00,,,0.01,Wunderground v.1.15,2013-03-25 20:24:00,
2013-03-25 15:29:00,36.0,27.8,30.06,NW,325,17.0,22.0,72,0.00,,,0.01,Wunderground v.1.15,2013-03-25 20:29:00,
2013-03-25 15:34:00,36.0,27.5,30.06,North,5,18.0,23.0,71,0.00,,,0.01,Wunderground v.1.15,2013-03-25 20:34:00,
2013-03-25 15:39:00,36.1,27.6,30.06,NNW,344,18.0,24.0,71,0.00,,,0.01,Wunderground v.1.15,2013-03-25 20:39:00,
2013-03-25 15:44:00,36.5,28.3,30.06,North,351,24.0,26.0,72,0.00,,,0.01,Wunderground v.1.15,2013-03-25 20:44:00,
2013-03-25 15:49:00,36.6,27.4,30.06,NNW,339,21.0,28.0,69,0.00,,,0.01,Wunderground v.1.15,2013-03-25 20:49:00,
2013-03-25 15:54:00,36.4,27.2,30.06,North,349,21.0,25.0,69,0.00,,,0.01,Wunderground v.1.15,2013-03-25 20:54:00,
2013-03-25 15:59:00,36.2,27.7,30.07,NNW,338,18.0,26.0,71,0.00,,,0.01,Wunderground v.1.15,2013-03-25 20:59:00,
2013-03-25 16:04:00,36.1,27.3,30.07,NNW,348,20.0,24.0,70,0.00,,,0.01,Wunderground v.1.15,2013-03-25 21:04:00,
2013-03-25 16:09:00,36.2,28.0,30.07,NNW,342,11.0,25.0,72,0.00,,,0.01,Wunderground v.1.15,2013-03-25 21:09:00,
2013-03-25 16:14:00,36.1,27.6,30.07,North,355,17.0,21.0,71,0.00,,,0.01,Wunderground v.1.15,2013-03-25 21:14:00,
2013-03-25 16:19:00,36.1,27.3,30.07,North,5,16.0,23.0,70,0.00,,,0.01,Wunderground v.1.15,2013-03-25 21:19:00,
2013-03-25 16:24:00,36.0,27.2,30.08,North,351,15.0,22.0,70,0.00,,,0.01,Wunderground v.1.15,2013-03-25 21:24:00,
2013-03-25 16:29:00,36.1,27.6,30.08,NNW,331,15.0,22.0,71,0.00,,,0.01,Wunderground v.1.15,2013-03-25 21:29:00,
2013-03-25 16:34:00,36.0,27.2,30.08,NNE,12,10.0,19.0,70,0.00,,,0.01,Wunderground v.1.15,2013-03-25 21:34:00,
2013-03-25 16:39:00,36.0,26.5,30.08,North,9,14.0,23.0,68,0.00,,,0.01,Wunderground v.1.15,2013-03-25 21:39:00,
2013-03-25 16:44:00,35.9,27.1,30.08,NNE,15,11.0,18.0,70,0.00,,,0.01,Wunderground v.1.15,2013-03-25 21:44:00,
2013-03-25 16:49:00,35.8,26.6,30.08,North,5,11.0,19.0,69,0.00,,,0.01,Wunderground v.1.15,2013-03-25 21:49:00,
2013-03-25 16:54:00,35.7,26.2,30.09,NNE,17,14.0,24.0,68,0.00,,,0.01,Wunderground v.1.15,2013-03-25 21:54:00,
2013-03-25 16:59:00,35.7,26.5,30.09,NNW,343,21.0,24.0,69,0.00,,,0.01,Wunderground v.1.15,2013-03-25 21:59:00,
2013-03-25 17:04:00,35.6,26.4,30.09,North,350,17.0,19.0,69,0.00,,,0.01,Wunderground v.1.15,2013-03-25 22:04:00,
2013-03-25 17:09:00,35.6,26.4,30.09,North,5,18.0,20.0,69,0.00,,,0.01,Wunderground v.1.15,2013-03-25 22:09:00,
2013-03-25 17:14:00,35.5,26.7,30.09,North,355,14.0,24.0,70,0.00,,,0.01,Wunderground v.1.15,2013-03-25 22:14:00,
2013-03-25 17:19:00,35.6,26.8,30.10,North,355,13.0,24.0,70,0.00,,,0.01,Wunderground v.1.15,2013-03-25 22:19:00,
2013-03-25 17:24:00,35.5,26.3,30.10,North,5,14.0,22.0,69,0.00,,,0.01,Wunderground v.1.15,2013-03-25 22:24:00,
2013-03-25 17:29:00,35.4,26.2,30.10,NNE,23,15.0,22.0,69,0.00,,,0.01,Wunderground v.1.15,2013-03-25 22:29:00,
2013-03-25 17:34:00,35.4,26.2,30.10,North,355,14.0,19.0,69,0.00,,,0.01,Wunderground v.1.15,2013-03-25 22:34:00,
2013-03-25 17:39:00,35.5,26.0,30.10,North,5,19.0,21.0,68,0.00,,,0.01,Wunderground v.1.15,2013-03-25 22:39:00,
2013-03-25 17:44:00,35.4,25.9,30.10,North,351,14.0,24.0,68,0.00,,,0.01,Wunderground v.1.15,2013-03-25 22:44:00,
2013-03-25 17:49:00,35.5,26.3,30.10,North,5,13.0,24.0,69,0.00,,,0.01,Wunderground v.1.15,2013-03-25 22:49:00,
2013-03-25 17:54:00,35.4,25.9,30.11,NNW,348,18.0,22.0,68,0.00,,,0.01,Wunderground v.1.15,2013-03-25 22:54:00,
2013-03-25 17:59:00,35.5,26.3,30.11,North,349,11.0,22.0,69,0.00,,,0.01,Wunderground v.1.15,2013-03-25 22:59:00,
2013-03-25 18:04:00,35.4,26.2,30.11,NNW,344,18.0,23.0,69,0.00,,,0.01,Wunderground v.1.15,2013-03-25 23:04:00,
2013-03-25 18:09:00,35.4,26.9,30.11,North,355,13.0,23.0,71,0.00,,,0.01,Wunderground v.1.15,2013-03-25 23:09:00,
2013-03-25 18:14:00,35.2,26.4,30.12,North,355,19.0,19.0,70,0.00,,,0.01,Wunderground v.1.15,2013-03-25 23:14:00,
2013-03-25 18:19:00,35.0,25.9,30.12,North,9,14.0,19.0,69,0.00,,,0.01,Wunderground v.1.15,2013-03-25 23:19:00,
2013-03-25 18:24:00,34.7,25.9,30.12,NNW,344,15.0,20.0,70,0.00,,,0.01,Wunderground v.1.15,2013-03-25 23:24:00,
2013-03-25 18:29:00,34.5,25.4,30.13,NNW,348,14.0,20.0,69,0.00,,,0.01,Wunderground v.1.15,2013-03-25 23:29:00,
2013-03-25 18:34:00,34.4,25.3,30.13,NNW,347,14.0,22.0,69,0.00,,,0.01,Wunderground v.1.15,2013-03-25 23:34:00,
2013-03-25 18:39:00,34.4,25.6,30.13,NNW,344,13.0,22.0,70,0.00,,,0.01,Wunderground v.1.15,2013-03-25 23:39:00,
2013-03-25 18:44:00,34.4,26.0,30.13,North,355,12.0,15.0,71,0.00,,,0.01,Wunderground v.1.15,2013-03-25 23:44:00,
2013-03-25 18:49:00,34.4,25.6,30.14,NNW,348,17.0,21.0,70,0.00,,,0.01,Wunderground v.1.15,2013-03-25 23:49:00,
2013-03-25 18:54:00,34.4,25.6,30.14,NNW,342,11.0,18.0,70,0.00,,,0.01,Wunderground v.1.15,2013-03-25 23:54:00,
2013-03-25 18:59:00,34.3,25.5,30.14,North,351,12.0,18.0,70,0.00,,,0.01,Wunderground v.1.15,2013-03-25 23:59:00,
2013-03-25 19:04:00,34.2,26.1,30.14,NNW,348,12.0,15.0,72,0.00,,,0.01,Wunderground v.1.15,2013-03-26 00:04:00,
2013-03-25 19:09:00,34.0,26.3,30.14,NNW,344,12.0,17.0,73,0.00,,,0.01,Wunderground v.1.15,2013-03-26 00:09:00,
2013-03-25 19:14:00,33.8,26.4,30.15,NNW,342,11.0,16.0,74,0.00,,,0.01,Wunderground v.1.15,2013-03-26 00:14:00,
2013-03-25 19:20:00,33.6,26.5,30.15,NNW,343,11.0,12.0,75,0.00,,,0.01,Wunderground v.1.15,2013-03-26 00:20:00,
2013-03-25 19:25:00,33.5,26.4,30.15,NNW,334,9.0,16.0,75,0.00,,,0.01,Wunderground v.1.15,2013-03-26 00:25:00,
2013-03-25 19:30:00,33.4,26.6,30.15,NNW,327,14.0,14.0,76,0.00,,,0.01,Wunderground v.1.15,2013-03-26 00:30:00,
2013-03-25 19:35:00,33.3,26.5,30.16,NNW,334,11.0,15.0,76,0.00,,,0.01,Wunderground v.1.15,2013-03-26 00:35:00,
2013-03-25 19:40:00,33.2,26.8,30.16,NNW,333,7.0,10.0,77,0.00,,,0.01,Wunderground v.1.15,2013-03-26 00:40:00,
2013-03-25 19:45:00,33.0,26.6,30.16,NNW,327,9.0,13.0,77,0.00,,,0.01,Wunderground v.1.15,2013-03-26 00:45:00,
2013-03-25 19:50:00,32.9,26.5,30.16,NW,326,5.0,13.0,77,0.00,,,0.01,Wunderground v.1.15,2013-03-26 00:50:00,
2013-03-25 19:55:00,32.9,26.5,30.16,NNW,329,9.0,13.0,77,0.00,,,0.01,Wunderground v.1.15,2013-03-26 00:55:00,
2013-03-25 20:00:00,32.9,26.5,30.16,NNW,332,10.0,10.0,77,0.00,,,0.01,Wunderground v.1.15,2013-03-26 01:00:00,
2013-03-25 20:05:00,32.9,26.5,30.16,NNW,331,11.0,12.0,77,0.00,,,0.01,Wunderground v.1.15,2013-03-26 01:05:00,
2013-03-25 20:10:00,32.9,26.5,30.16,NNW,333,6.0,9.0,77,0.00,,,0.01,Wunderground v.1.15,2013-03-26 01:10:00,
2013-03-25 20:15:00,32.8,26.4,30.16,NNW,331,9.0,10.0,77,0.00,,,0.01,Wunderground v.1.15,2013-03-26 01:15:00,
2013-03-25 20:20:00,32.7,26.3,30.17,NW,325,9.0,9.0,77,0.00,,,0.01,Wunderground v.1.15,2013-03-26 01:20:00,
2013-03-25 20:25:00,32.7,26.3,30.17,NW,322,9.0,12.0,77,0.00,,,0.01,Wunderground v.1.15,2013-03-26 01:25:00,
2013-03-25 20:30:00,32.7,26.3,30.17,NW,325,6.0,9.0,77,0.00,,,0.01,Wunderground v.1.15,2013-03-26 01:30:00,
2013-03-25 20:35:00,32.6,26.2,30.17,NW,325,9.0,11.0,77,0.00,,,0.01,Wunderground v.1.15,2013-03-26 01:35:00,
2013-03-25 20:40:00,32.6,26.2,30.17,NW,326,6.0,9.0,77,0.00,,,0.01,Wunderground v.1.15,2013-03-26 01:40:00,
2013-03-25 20:45:00,32.6,26.2,30.17,NNW,327,6.0,13.0,77,0.00,,,0.01,Wunderground v.1.15,2013-03-26 01:45:00,
2013-03-25 20:50:00,32.6,26.2,30.17,NW,323,6.0,8.0,77,0.00,,,0.01,Wunderground v.1.15,2013-03-26 01:50:00,
2013-03-25 20:55:00,32.6,26.2,30.17,NW,323,6.0,9.0,77,0.00,,,0.01,Wunderground v.1.15,2013-03-26 01:55:00,
2013-03-25 21:00:00,32.5,26.1,30.17,NW,323,6.0,7.0,77,0.00,,,0.01,Wunderground v.1.15,2013-03-26 02:00:00,
2013-03-25 21:05:00,32.4,26.0,30.17,NW,323,7.0,10.0,77,0.00,,,0.01,Wunderground v.1.15,2013-03-26 02:05:00,
2013-03-25 21:10:00,32.3,25.9,30.18,NW,323,7.0,7.0,77,0.00,,,0.01,Wunderground v.1.15,2013-03-26 02:10:00,
2013-03-25 21:15:00,32.1,26.0,30.18,NW,323,6.0,9.0,78,0.00,,,0.01,Wunderground v.1.15,2013-03-26 02:15:00,
2013-03-25 21:20:00,32.1,25.7,30.18,NW,321,9.0,9.0,77,0.00,,,0.01,Wunderground v.1.15,2013-03-26 02:20:00,
2013-03-25 21:25:00,32.2,25.8,30.18,NW,320,6.0,10.0,77,0.00,,,0.01,Wunderground v.1.15,2013-03-26 02:25:00,
2013-03-25 21:30:00,32.2,25.8,30.18,NW,319,5.0,7.0,77,0.00,,,0.01,Wunderground v.1.15,2013-03-26 02:30:00,
2013-03-25 21:35:00,32.1,25.7,30.18,NW,319,5.0,9.0,77,0.00,,,0.01,Wunderground v.1.15,2013-03-26 02:35:00,
2013-03-25 21:40:00,32.0,25.6,30.18,NW,319,9.0,9.0,77,0.00,,,0.01,Wunderground v.1.15,2013-03-26 02:40:00,
2013-03-25 21:45:00,32.0,25.6,30.18,NW,319,7.0,10.0,77,0.00,,,0.01,Wunderground v.1.15,2013-03-26 02:45:00,
2013-03-25 21:50:00,31.9,25.5,30.19,NW,319,5.0,6.0,77,0.00,,,0.01,Wunderground v.1.15,2013-03-26 02:50:00,
2013-03-25 21:55:00,31.6,25.5,30.19,NW,319,6.0,7.0,78,0.00,,,0.01,Wunderground v.1.15,2013-03-26 02:55:00,
2013-03-25 22:00:00,31.5,25.7,30.19,NW,320,4.0,6.0,79,0.00,,,0.01,Wunderground v.1.15,2013-03-26 03:00:00,
2013-03-25 22:05:00,31.4,25.6,30.19,NW,319,5.0,9.0,79,0.00,,,0.01,Wunderground v.1.15,2013-03-26 03:05:00,
2013-03-25 22:10:00,31.4,25.9,30.19,NW,319,5.0,6.0,80,0.00,,,0.01,Wunderground v.1.15,2013-03-26 03:10:00,
2013-03-25 22:15:00,31.1,25.7,30.19,NW,319,7.0,7.0,80,0.00,,,0.01,Wunderground v.1.15,2013-03-26 03:15:00,
2013-03-25 22:20:00,31.0,25.9,30.19,NW,319,7.0,7.0,81,0.00,,,0.01,Wunderground v.1.15,2013-03-26 03:20:00,
2013-03-25 22:25:00,30.9,26.1,30.19,NW,319,5.0,7.0,82,0.00,,,0.01,Wunderground v.1.15,2013-03-26 03:25:00,
2013-03-25 22:30:00,30.8,26.0,30.19,NW,319,9.0,10.0,82,0.00,,,0.01,Wunderground v.1.15,2013-03-26 03:30:00,
2013-03-25 22:35:00,31.0,26.1,30.19,NW,317,12.0,12.0,82,0.00,,,0.01,Wunderground v.1.15,2013-03-26 03:35:00,
2013-03-25 22:40:00,31.3,26.1,30.19,NW,316,10.0,10.0,81,0.00,,,0.01,Wunderground v.1.15,2013-03-26 03:40:00,
2013-03-25 22:45:00,31.4,26.2,30.20,NW,313,10.0,12.0,81,0.00,,,0.01,Wunderground v.1.15,2013-03-26 03:45:00,
2013-03-25 22:50:00,31.4,25.9,30.20,NW,315,6.0,9.0,80,0.00,,,0.01,Wunderground v.1.15,2013-03-26 03:50:00,
2013-03-25 22:55:00,31.2,26.0,30.20,NW,315,6.0,11.0,81,0.00,,,0.01,Wunderground v.1.15,2013-03-26 03:55:00,
2013-03-25 23:00:00,31.2,26.0,30.19,NW,317,7.0,7.0,81,0.00,,,0.01,Wunderground v.1.15,2013-03-26 04:00:00,
2013-03-25 23:05:00,31.2,26.0,30.19,NW,315,10.0,11.0,81,0.00,,,0.01,Wunderground v.1.15,2013-03-26 04:05:00,
2013-03-25 23:10:00,31.2,26.0,30.20,NW,315,7.0,8.0,81,0.00,,,0.01,Wunderground v.1.15,2013-03-26 04:10:00,
2013-03-25 23:15:00,31.1,26.0,30.20,NW,316,4.0,10.0,81,0.00,,,0.01,Wunderground v.1.15,2013-03-26 04:15:00,
2013-03-25 23:20:00,30.9,25.8,30.20,NW,316,6.0,6.0,81,0.00,,,0.01,Wunderground v.1.15,2013-03-26 04:20:00,
2013-03-25 23:25:00,30.7,25.9,30.20,NW,316,6.0,7.0,82,0.00,,,0.01,Wunderground v.1.15,2013-03-26 04:25:00,
2013-03-25 23:30:00,30.5,25.7,30.20,NW,316,4.0,6.0,82,0.00,,,0.01,Wunderground v.1.15,2013-03-26 04:30:00,
2013-03-25 23:35:00,30.3,25.8,30.20,NW,316,6.0,7.0,83,0.00,,,0.01,Wunderground v.1.15,2013-03-26 04:35:00,
2013-03-25 23:40:00,30.2,25.7,30.20,NW,316,5.0,6.0,83,0.00,,,0.01,Wunderground v.1.15,2013-03-26 04:40:00,
2013-03-25 23:45:00,30.1,25.6,30.20,NW,316,6.0,7.0,83,0.00,,,0.01,Wunderground v.1.15,2013-03-26 04:45:00,
2013-03-25 23:50:00,30.1,25.8,30.20,NW,316,4.0,6.0,84,0.00,,,0.01,Wunderground v.1.15,2013-03-26 04:50:00,
2013-03-25 23:55:00,30.0,25.5,30.20,NW,316,5.0,7.0,83,0.00,,,0.01,Wunderground v.1.15,2013-03-26 04:55:00,